Probability
0 0 0 0 0 0 0 0 0 0 0 0 0 0 0 0 0 0 0 0 0 0 0 0 0 0 0 0 0 0 0 0 0 0 0 0 0 0 0 0 0 0 0 0
0 0 0 0 0 0 0 0 0 0 0 0 0 0 0 0 0 0 0 0 0 0 0 0 0 0 0 0 0 0 0 0 0 0 0 0 0 0 0 0 0 0 0 0
0 0 0 0 0 0 0 0 0 0 0 0 0 0 0 0 0 0 0 0 0 0 0 0 0 0 0 0 0 0 0 0 0 0 0 0 0 0 0 0 0 0 0 0
0 0 0 0 0 0 0 0 0 0 0 0 0 0 0 0 0 0 0 0 0 0 0 0 0 0 0 0 0 0 0 0 0 0 0 0 0 0 0 0 0 0 0 0
0 0 0 0 0 0 0 0 0 0 0 0 0 0 0 0 0 0 0 0 0 0 0 0 0 0 0 0 0 0 0 0 0 0 0 0 0 0 0 0 0 0 0 0
0 0 0 0 0 0 0 0 0 0 0 0 0 0 0 0 0 0 0 0 0 0 0 0 0 0 0 0 0 0 0 0 0 0 0 0 0 0 0 0 0 0 0 0
0 0 0 0 0 0 0 0 0 0 0 0 0 0 0 0 0 0 0 0 0 0 0 0 0 0 0 0 0 0 0 0 0 0 0 0 0 0 0 0 0 0 0 0
0 0 0 0 0 0 0 0 0 0 0 0 0 0 0 0 0 0 0 0 0 0 0 0 0 0 0 0 0 0 0 0 0 0 0 0 0 0 0 0 0 0 0 0
0 0 0 0 0 0 0 0 0 0 0 0 0 0 0 0 0 0 0 0 0 0 0 0 0 0 0 0 0 0 0 0 0 0 0 0 0 0 0 0 0 0 0 0
0 0 0 0 0 0 0 0 0 0 0 0 0 0 0 0 0 0 0 0 0 0 0 0 0 0 0 0 0 0 0 0 0 0 0 0 0 0 0 0 0 0 0 0
0 0 0 0 0 0 0 0 0 0 0 0 0 0 0 0 0 0 0 0 0 0 0 0 0 0 0 0 0 0 0 0 0 0 0 0 0 0 0 0 0 0 0 0
0 0 0 0 0 0 0 0 0 0 0 0 0 0 0 0 0 0 0 0 0 0 0 0 0 0 0 0 0 0 0 0 0 0 0 0 0 0 0 0 0 0 0 0
0 0 0 0 0 0 0 0 0 0 0 0 0 0 0 0 0 0 0 0 0 0 0 0 0 0 0 0 0 0 0 0 0 0 0 0 0 0 0 0 0 0 0 0
0 0 0 0 0 0 0 0 0 0 0 0 0 0 0 0 0 0 0 0 0 0 0 0 0 0 0 0 0 0 0 0 0 0 0 0 0 0 0 0 0 0 0 0
0 0 0 0 0 0 0 0 0 0 0 0 0 0 0 0 0 0 0 0 0 0 0 0 0 0 0 0 0 0 0 0 0 0 0 0 0 0 0 0 0 0 0 0
0 0 0 0 0 0 0 0 0 0 0 0 0 0 0 0 0 0 0 0 0 0 0 0 0 0 0 0 0 0 0 0 0 0 0 0 0 0 0 0 0 0 0 0
0 0 0 0 0 0 0 0 0 0 0 0 0 0 0 0 0 0 0 0 0 0 0 0 0 0 0 0 0 0 0 0 0 0 0 0 0 0 0 0 0 0 0 0
0 0 0 0 0 0 0 0 0 0 0 0 0 0 0 0 0 0 0 0 0 0 0 0 0 0 0 0 0 0 0 0 0 0 0 0 0 0 0 0 0 0 0 0
0 0 0 0 0 0 0 0 0 0 0 0 0 0 0 0 0 0 0 0 0 0 0 0 0 0 0 0 0 0 0 0 0 0 0 0 0 0 0 0 0 0 0 0
0 0 0 0 0 0 0 0 0 0 0 0 0 0 0 0 0 0 0 0 0 0 0 0 0 0 0 0 0 0 0 0 0 0 0 0 0 0 0 0 0 0 0 0
0 0 0 0 0 0 0 0 0 0 0 0 0 0 0 0 0 0 0 0 0 0 0 0 0 0 0 0 0 0 0 0 0 0 0 0 0 0 0 0 0 0 0 0
0 0 0 0 0 0 0 0 0 0 0 0 0 0 0 0 0 0 0 0 0 0 0 0 0 0 0 0 0 0 0 0 0 0 0 0 0 0 0 0 0 0 0 0
0 0 0 0 0 0 0 0 0 0 0 0 0 0 0 0 0 0 0 0 0 0 0 0 0 0 0 0 0 0 0 0 0 0 0 0 0 0 0 0 0 0 0 0
0 0 0 0 0 0 0 0 0 0 0 0 0 0 0 0 0 0 0 0 0 0 0 0 0 0 0 0 0 0 0 0 0 0 0 0 0 0 0 0 0 0 0 0
0 0 0 0 0 0 0 0 0 0 0 0 0 0 0 0 0 0 0 0 0 0 0 0 0 0 0 0 0 0 0 0 0 0 0 0 0 0 0 0 0 0 0 0
0 0 0 0 0 0 0 0 0 0 0 0 0 0 0 0 0 0 0 0 0 0 0 0 0 0 0 0 0 0 0 0 0 0 0 0 0 0 0 0 0 0 0 0
0 0 0 0 0 0 0 0 0 0 0 0 0 0 0 0 0 0 0 0 0 0 0 0 0 0 0 0 0 0 0 0 0 0 0 0 0 0 0 0 0 0 0 0
Wind_Speed
6 5 3 4 6 6 6 7 8 8 8 10 8 8 6 4 4 4 5 5 5 5 4 4 5 5 5 5 5 5 5 6 7 7 6 7 7 8 8 8 9 8 8 9
3 2 2 4 6 5 5 4 5 4 7 7 3 3 3 5 6 7 6 7 6 6 5 5 5 5 5 5 5 4 5 7 7 6 7 7 8 8 8 9 9 8 9 9
4 4 3 5 4 4 4 4 7 7 8 2 3 6 8 8 8 8 8 7 7 7 6 6 6 5 6 6 5 5 6 7 7 7 7 8 8 8 9 9 8 9 9 9
2 1 3 9 4 4 4 4 5 5 5 6 7 4 3 6 8 9 8 7 7 6 6 5 5 4 5 5 5 5 6 7 7 7 8 8 8 9 9 8 8 8 9 9
4 3 5 8 4 5 5 5 5 6 5 3 3 3 4 6 8 9 8 8 7 7 6 5 5 5 4 5 5 6 7 7 7 7 8 9 9 9 8 8 9 8 8 9
4 4 6 10 4 4 4 5 6 8 8 6 6 2 7 7 9 9 7 6 6 5 4 5 5 4 4 6 5 7 7 7 7 7 8 9 10 9 8 7 9 9 9 9
4 4 9 8 2 6 3 10 6 10 10 11 11 10 6 4 7 8 8 7 6 5 5 6 5 3 5 6 7 7 6 7 7 7 8 9 8 7 8 8 8 8 9 9
5 3 9 3 8 9 12 5 5 10 10 12 12 8 5 5 7 8 8 7 7 6 6 6 4 4 6 7 7 6 6 7 8 8 7 7 7 8 7 7 7 8 8 8
8 8 7 4 8 7 4 5 6 9 10 13 11 9 8 8 9 8 9 8 6 7 7 6 5 6 7 7 6 5 5 7 7 8 7 7 7 8 7 6 5 6 6 7
4 8 7 6 7 6 7 8 8 9 10 12 12 11 10 9 8 8 8 7 6 6 6 6 6 6 8 7 5 5 6 7 7 7 8 7 6 5 6 6 6 6 6 7
5 8 8 8 5 6 5 6 5 6 8 12 13 11 10 9 9 9 7 6 6 7 8 8 6 6 6 6 4 5 6 6 7 6 6 7 7 6 6 7 6 7 7 6
6 7 4 7 8 7 4 5 6 6 6 7 10 11 9 9 8 7 7 6 6 7 8 8 6 7 6 5 4 5 5 6 5 5 6 6 6 8 8 8 10 10 11 10
7 5 2 5 7 8 5 5 4 4 6 7 7 8 8 7 5 6 6 7 9 9 8 7 6 7 6 5 4 5 6 6 5 5 6 6 6 6 8 9 8 8 8 9
7 3 5 7 7 9 8 7 5 4 3 2 2 2 3 3 3 6 8 9 8 7 6 6 6 7 6 4 4 5 6 7 6 5 5 6 6 6 6 7 8 7 7 7
12 9 5 5 9 13 12 12 12 11 9 7 4 1 1 2 4 6 7 5 4 5 6 6 6 8 5 4 5 6 5 5 5 5 5 5 5 5 5 6 6 7 6 6
7 10 12 14 15 14 14 15 13 12 10 8 5 3 1 2 3 4 4 4 5 7 8 6 8 7 4 4 5 5 5 8 7 5 5 5 5 5 5 5 6 6 6 5
14 15 13 13 12 12 11 9 8 9 9 9 6 4 2 1 3 4 5 5 6 7 6 7 8 6 5 5 5 4 4 6 8 6 5 5 5 5 5 5 5 6 6 6
6 5 5 6 7 9 10 10 10 9 8 7 7 6 4 3 5 7 6 4 5 7 8 8 7 6 5 5 5 4 4 4 4 5 5 5 5 4 4 5 6 7 6 6
8 8 8 8 8 7 8 8 8 8 7 7 6 5 5 5 6 6 5 4 6 9 9 7 9 7 6 6 6 4 4 5 5 5 4 5 5 4 4 4 5 5 5 5
7 7 8 9 9 8 8 8 8 8 7 7 6 6 7 7 6 6 5 7 8 8 6 5 6 6 6 6 6 3 4 4 5 5 4 4 4 4 4 4 5 5 5 5
6 7 8 8 8 8 8 7 7 7 8 7 6 6 7 8 7 6 5 8 9 7 6 8 6 6 5 5 5 4 4 4 4 4 4 4 3 4 4 4 4 4 5 5
5 5 7 7 7 8 7 7 6 6 7 7 7 7 8 9 9 8 7 8 8 7 5 5 5 7 7 6 4 4 4 4 3 3 3 3 3 3 3 4 4 4 4 5
5 5 6 7 7 7 8 6 5 5 6 6 7 7 7 8 6 6 9 8 7 7 5 5 6 8 8 5 4 4 4 3 3 3 3 2 2 3 3 3 3 4 4 5
6 6 7 7 5 5 6 6 6 5 5 6 6 6 6 6 7 6 7 10 11 9 5 5 7 8 7 4 3 3 3 2 2 2 2 2 2 2 2 3 3 4 4 5
7 7 6 6 6 5 6 6 6 6 6 5 7 8 6 5 6 8 9 10 10 7 5 4 6 6 4 3 3 2 2 1 1 1 1 2 2 2 2 2 3 4 4 4
7 6 7 7 6 6 5 5 4 5 5 5 6 6 7 7 8 7 7 8 9 6 4 2 3 4 3 2 2 2 1 0 0 1 1 2 2 2 2 3 4 3 4 4
7 6 5 6 6 6 5 5 5 6 6 5 6 7 7 7 8 8 9 7 5 4 2 1 2 2 2 2 2 2 2 1 1 1 2 2 2 2 3 4 3 3 3 4
Wind_Direction
236 247 243 254 252 188 190 192 190 229 229 246 230 216 215 199 180 180 197 212 222 232 248 264 275 279 276 278 281 281 283 282 278 281 283 284 284 284 284 282 281 276 277 275
279 270 265 266 264 216 209 197 210 236 255 249 230 165 185 191 185 198 215 226 233 238 246 254 261 269 275 275 279 283 279 279 283 287 288 286 286 287 287 286 285 282 278 277
255 303 1 289 253 207 213 204 180 206 238 204 178 200 210 204 197 207 219 227 231 235 237 244 251 254 260 267 280 283 278 281 285 286 287 287 290 292 289 287 285 285 283 279
175 69 240 249 256 206 204 227 208 224 233 201 206 213 223 200 198 213 221 224 230 231 235 242 245 250 259 269 276 278 281 283 285 286 287 290 291 289 287 285 285 284 283 281
137 182 271 292 245 173 173 253 214 208 215 181 97 51 304 224 203 210 213 214 219 220 221 233 245 250 259 273 277 279 279 280 282 284 288 292 293 291 289 289 290 287 283 282
138 161 226 249 243 157 111 279 228 190 191 162 124 153 258 232 203 215 218 215 216 216 217 235 246 238 247 265 274 273 273 276 280 282 283 287 287 287 288 287 287 289 287 284
163 201 254 250 176 125 161 243 219 189 186 168 182 202 223 206 196 204 208 213 210 207 217 232 235 221 242 259 263 263 272 278 282 283 282 282 282 284 289 291 292 291 291 290
146 182 258 227 145 180 215 226 196 192 187 187 209 224 229 213 207 204 207 212 204 206 228 237 226 217 243 256 258 267 274 279 284 287 287 289 288 292 292 291 295 296 296 297
188 215 241 224 214 229 202 212 211 197 197 195 206 221 219 215 212 210 209 210 202 205 228 243 231 215 236 252 261 272 277 281 287 293 291 286 286 293 298 295 293 295 294 295
254 272 268 261 252 249 216 221 224 204 194 186 201 213 212 212 211 212 213 210 202 201 222 241 239 228 234 252 263 266 275 284 291 296 300 300 293 286 289 292 295 296 294 293
264 281 309 312 289 271 253 245 244 223 201 199 203 210 206 208 210 209 208 205 195 202 219 235 241 244 246 249 250 260 274 284 291 290 292 300 300 287 281 273 264 274 283 281
243 254 238 278 308 328 298 263 242 222 222 216 206 212 205 209 207 200 201 199 204 213 222 235 240 248 253 247 236 250 274 285 288 293 296 298 303 307 288 274 280 270 258 258
267 293 292 297 334 346 322 298 276 223 220 226 223 211 203 205 198 192 199 203 211 217 221 229 235 247 254 246 233 241 258 275 284 288 293 299 302 303 310 314 308 296 284 278
338 343 16 360 346 350 355 348 353 353 331 305 261 205 187 188 182 199 213 215 214 216 223 227 234 247 251 240 236 248 260 272 278 280 286 290 293 293 293 302 312 313 305 294
21 40 45 11 20 21 21 25 27 16 6 2 5 24 175 189 207 223 228 216 206 218 230 230 237 250 249 233 239 253 265 273 279 282 283 284 287 291 293 296 298 301 306 306
20 38 34 32 26 20 23 25 21 9 5 1 359 345 291 238 242 246 235 199 201 226 233 229 237 244 238 229 242 256 265 279 287 286 289 293 296 300 304 305 304 305 306 305
42 29 17 16 13 12 14 13 11 6 6 4 347 332 333 317 289 277 265 237 227 237 235 229 236 237 226 224 233 249 264 283 293 292 286 288 294 299 301 301 302 303 301 296
55 42 24 12 4 2 2 3 2 0 359 352 353 357 346 308 275 271 271 266 252 255 248 235 229 224 221 224 229 239 255 271 279 284 288 291 294 295 298 300 302 306 307 311
31 23 13 8 2 357 352 348 344 341 343 351 355 345 323 306 297 296 298 282 265 265 262 233 221 216 219 224 226 230 248 268 278 282 285 293 298 300 303 306 309 311 313 315
17 10 3 357 355 352 344 339 337 338 340 344 344 340 332 319 307 297 285 268 257 254 253 233 214 212 217 223 224 226 242 260 273 285 292 298 304 307 308 312 316 320 322 320
357 353 349 344 338 337 335 332 333 332 331 337 338 326 315 309 305 291 279 281 279 265 253 235 219 216 212 208 213 220 234 250 264 278 289 297 304 307 312 319 323 326 326 323
329 329 328 328 330 327 324 324 326 327 331 334 332 328 325 321 318 309 286 270 280 280 264 239 225 217 209 203 205 216 229 243 257 270 281 292 299 305 313 323 329 331 329 328
308 308 311 312 312 305 309 315 322 324 323 321 319 318 313 306 303 301 303 298 298 286 271 247 228 216 207 199 203 213 223 233 253 270 281 291 296 299 309 324 333 333 332 334
295 296 296 296 302 307 308 304 309 308 305 303 299 299 301 307 309 299 290 297 297 288 275 251 228 215 197 195 197 206 217 227 244 269 289 306 315 316 322 334 341 340 338 339
284 287 290 298 298 289 281 288 300 302 307 307 306 306 302 288 286 300 305 303 299 291 284 253 222 199 186 185 187 196 203 214 240 273 305 329 332 333 343 354 356 348 345 346
281 280 277 270 265 266 269 272 273 278 284 291 297 299 303 304 302 304 305 302 296 286 278 256 205 177 174 170 157 156 156 145 88 9 352 347 346 352 360 4 5 359 350 350
283 279 277 281 279 266 261 258 261 268 269 270 278 287 297 305 309 312 311 307 301 288 275 243 190 164 151 139 124 111 95 68 42 28 12 4 2 3 3 7 10 6 1 2